Flag for Brazil Weather past 2 weeks in Manaus, Amazonas, Brazil

Now
79 °F

Clear.


Feels Like: 82 °F
Forecast: 74 / 87 °F
Wind: 2 mph from West

Location: Manaus Aeroporto

Current Time: Aug 28, 2014 at 3:36:11 AM

Latest Report: Aug 28, 2014 at 3:00 AM


Visibility: 10 mi

Pressure: 29.86 "Hg

Humidity: 84%

Dew point: 73 °F

Location of ManausLocation

Historic Weather in Manaus — Graph

°F

Manaus temperature yesterday

Maximum temperature yesterday: 90 °F (at 1:00 PM)
Minimum temperature yesterday: 77 °F (at 6:00 AM)
Average temperature yesterday: 83 °F

Past Weeks' High & Low Weather Summary

 TemperatureHumidityPressure
High93 °F (Aug 20, 2:00 PM)94% (Aug 16, 10:00 AM)30.04 "Hg (Aug 16, 10:00 AM)
Low72 °F (Aug 16, 10:00 AM)34% (Aug 20, 1:00 PM)29.74 "Hg (Aug 24, 5:00 PM)
Average82 °F73%29.89 "Hg
* Reported Aug 13 2:00 AM — Aug 28 2:00 AM, Manaus, Weather by CustomWeather, © 2014

Note: Actual official high and low records may vary slightly from our data, if they occured in-between our weather recording intervals... More about our weather records

Advertising

Manaus weather history for previous 24 hours

 ConditionsComfort  
Time TempWeatherWind HumidityBarometerVisibility
2:00 AM
Aug 28
77 °FClear.2 mph89%29.86 "Hg10 mi
1:00 AM79 °FClear.2 mph84%29.89 "Hg10 mi
12:00 AM81 °FClear.3 mph79%29.89 "Hg10 mi
11:00 PM
Aug 27
81 °FClear.5 mph84%29.92 "Hg10 mi
10:00 PM82 °FClear.3 mph79%29.92 "Hg10 mi
9:00 PM82 °FClear.3 mph74%29.89 "Hg10 mi
8:00 PM81 °FClear.2 mph79%29.86 "Hg10 mi
7:00 PM82 °FPassing clouds.2 mph70%29.83 "HgN/A
6:00 PM82 °FScattered clouds.3 mph66%29.80 "HgN/A
5:00 PM88 °FBroken clouds.5 mph62%29.80 "HgN/A
4:00 PM90 °FBroken clouds.5 mph59%29.80 "HgN/A
3:00 PM90 °FSunny.5 mph59%29.80 "Hg10 mi
2:00 PM90 °FScattered clouds.7 mph59%29.83 "HgN/A
1:00 PM90 °FScattered clouds.6 mph63%29.86 "HgN/A
12:00 PM88 °FScattered clouds.7 mph66%29.89 "HgN/A
11:00 AM86 °FScattered clouds.6 mph66%29.89 "HgN/A
10:00 AM88 °FScattered clouds.6 mph66%29.92 "HgN/A
9:00 AM84 °FPassing clouds.5 mph74%29.92 "HgN/A
8:00 AM82 °FPassing clouds.3 mph79%29.92 "HgN/A
7:00 AM81 °FPassing clouds.No wind84%29.89 "HgN/A
6:00 AM77 °FSunny.No wind89%29.86 "Hg10 mi
5:00 AM79 °FClear.2 mph84%29.86 "Hg10 mi
4:00 AM79 °FClear.3 mph89%29.83 "Hg10 mi
3:00 AM79 °FClear.3 mph89%29.83 "Hg10 mi
Weather by CustomWeather, © 2014

See weather overviewHow to use our weather pages